This is the latest recevied weather packets stored in our database for station/object WX5RP. If no packets are shown the sender has not sent any weather packets the latest 10 day(s).
| Time | Temp. | Humidity | Pressure | Rain* | Wind** | Luminosity | Snow |
|---|---|---|---|---|---|---|---|
| 1777296916 | -2.78° C | 84% | 1014.5 hPa | 0 mm | - | 13 W/m² | - |
| 1777296316 | -2.78° C | 83% | 1014.2 hPa | 0 mm | - | 6 W/m² | - |
| 1777295716 | -3.33° C | 84% | 1014.2 hPa | 0 mm | - | 1 W/m² | - |
| 1777295116 | -3.89° C | 84% | 1014.4 hPa | 0 mm | - | 0 W/m² | - |
| 1777294516 | -4.44° C | 84% | 1014.1 hPa | 0 mm | - | 0 W/m² | - |
| 1777293916 | -5° C | 83% | 1014.1 hPa | 0 mm | - | 0 W/m² | - |
| 1777293315 | -5° C | 83% | 1014 hPa | 0 mm | - | 0 W/m² | - |
| 1777292715 | -5° C | 83% | 1014.3 hPa | 0 mm | - | 0 W/m² | - |
| 1777292115 | -6.11° C | 84% | 1014 hPa | 0 mm | - | 0 W/m² | - |
| 1777291518 | -6.67° C | 82% | 1014 hPa | 0 mm | - | 0 W/m² | - |
| 1777290915 | -6.11° C | 82% | 1013.9 hPa | 0 mm | - | 0 W/m² | - |
| 1777290315 | -5.56° C | 81% | 1013.9 hPa | 0 mm | - | 0 W/m² | - |
| 1777289715 | -4.44° C | 82% | 1014.1 hPa | 0 mm | - | 0 W/m² | - |
| 1777289115 | -5° C | 82% | 1013.5 hPa | 0 mm | - | 0 W/m² | - |
| 1777288515 | -5° C | 82% | 1013.5 hPa | 0 mm | - | 0 W/m² | - |
| 1777287917 | -4.44° C | 81% | 1013.7 hPa | 0 mm | - | 0 W/m² | - |
| 1777287317 | -5° C | 82% | 1013.6 hPa | 0 mm | - | 0 W/m² | - |
| 1777286717 | -5.56° C | 81% | 1013.3 hPa | 0 mm | - | 0 W/m² | - |
| 1777286117 | -5.56° C | 81% | 1013.5 hPa | 0 mm | - | 0 W/m² | - |
| 1777285517 | -4.44° C | 80% | 1013.5 hPa | 0 mm | - | 0 W/m² | - |
| 1777284917 | -4.44° C | 80% | 1013.5 hPa | 0 mm | - | 0 W/m² | - |
| 1777284317 | -3.89° C | 80% | 1013.5 hPa | 0 mm | - | 0 W/m² | - |
| 1777283717 | -4.44° C | 80% | 1013.2 hPa | 0 mm | - | 0 W/m² | - |
| 1777283117 | -4.44° C | 78% | 1013.2 hPa | 0 mm | - | 0 W/m² | - |
| 1777282518 | -3.89° C | 79% | 1013.5 hPa | 0 mm | - | 0 W/m² | - |
* Rain latest hour (hover to see other rain measurements)
** Current wind speed in m/s (hover to see current wind gust speed)